Nur fliegen ist schöner ....

Willkommen beim Flugservice Bautzen GmbH

Wir sind eine nach europäischen Richtlinien zugelassene Flugschule und lizenziertes Luftfahrtunternehmen. Bei uns können sie nicht nur Rundflüge über die Oberlausitz oder Sachsen buchen, sondern in unserer Flugschule selber das Fliegen erlernen. Erfahrene Fluglehrer stehen Ihnen dabei zur Seite.

Wir bieten Ihnen außerdem spezielle Flüge zur Vermessung oder Fotoflüge für Luftbildaufnahmen an. In Zusammenarbeit mit dem Fallschirmsportclub Dresden und dem Cottbuser Fallschirmsportclub setzen wir am Flugplatz Bautzen und Neuhausen Fallschirmspringer ab.
Schauen Sie sich in Ruhe bei uns um und wenn Sie Fragen haben oder weitere Informationen benötigen, scheuen Sie sich nicht Kontakt mit uns aufzunehmen.

Gutscheine für Rundflüge und Tandemsprünge können Sie ganz leicht auch online in unserem Shop erwerben.

Terminkalender

Letzter Monat April 2020 Nächster Monat
Mo Di Mi Do Fr Sa So
week 14 1 2 3 4 5
week 15 6 7 8 9 10 11 12
week 16 13 14 15 16 17 18 19
week 17 20 21 22 23 24 25 26
week 18 27 28 29 30

Flugwetterinfo

[Quelle: ADDS]
METAR
EDDC 061350Z 15014KT 120V190 CAVOK 20/M01 Q1023 TEMPO 15015G25KT =
EDDC 061100Z 0612/0712 16013KT CAVOK TEMPO 0612/0614 16015G25KT BECMG 0614/0617 17008KT BECMG 0707/0709 23005KT
TAF
EDDC 061100Z 0612/0712 16013KT CAVOK TEMPO 0612/0614 16015G25KT BECMG 0614/0617 17008KT BECMG 0707/0709 23005KT =
SR / SS: 04:24 / 17:43 UTC (EDAB Flugplatz Bautzen 2020-04-06)

Öffnungszeiten

des Flugplatzes Bautzen erfahren Sie hier:

flugplatz bautzen logo
Flugservice Bautzen GmbH, Kornmarkt 34, 02625 Bautzen  Telefon: +49 (3591) 211105, Telefax: +49 (3591) 274512, E-Mail:  flugservice(at)fsbautzen.de